COSMOS 1275 DEB, 12723

Orbit data source: Space-Track

COSMOS 1275 DEB, 12723 is space debris in LEO originally from a launch on Thu, 04 Jun 1981 UTC launched from the Plesetsk Missile And Space Complex (PKMTR). Debris objects in space refer to the collection of defunct objects orbiting the Earth. Examples of debris include non-operational satellites, rocket bodies, and fragments generated from explosions, collisions, or faulty payload assembly.

Loading next visibility...
Identifier
12723, 1981-053BQ
Orbit
LEO
Country
Flag of CISCIS
Related business
Manufacturer
Unknown
Mission
Spacecraft
Bus & Motor
Unknown
Mass
Unknown
Launch date (UTC)
1981-06-04 (44 years ago)
Launch vehicle
Unknown
Launch site
Plesetsk Missile And Space Complex (PKMTR)
Object type
Payload
Rocket body
Debris
Shape & HBR
Unknown shape, 0.1 m
Radar Cross Section
Small (<0.1 m²)

Expand to show TLE details & history
Last TLE update: 20 hours ago

TLE from 20 hours ago
0 COSMOS 1275 DEB
1 12723U 81053BQ  25297.01721150  .00026925  00000-0  45072-2 0  9998
2 12723  82.9386  43.1068 0004192 224.4926 135.5947 14.69670296276942
Epoch: 2025-10-24T00:24Z
TLE epoch observation values (Epoch: 2025-10-24T00:24:47.073Z)
Latitude
0.00003°
Longitude
4.24251°
Altitude
667.261 km
Speed
7.522 km/s
True Right ascension
02h 52m 25s
True Declination
0° 00' 00"
Sunlit
Object was in full shadow at epoch
Visualization orbit readout
Latitude
Unknown
Longitude
Unknown
Altitude
Unknown
Speed
Unknown
Apparent Right ascension
Unknown
Apparent Declination
Unknown
Sunlit
N/A
Visualization observer readout
Local Sidereal Time
15:35:56
Azimuth
Unknown
Elevation
Unknown
Doppler factor
Unknown
Orbital elements
Apogee altitude
662.09 km
Perigee altitude
656.19 km
Semi-major axis
7,037.277 km
Eccentricity
0.00042
Inclination
82.9386°
RAAN
43.1068°
Arg. of periapsis
224.4926°
True anomaly
135.6283°
Mean anomaly
135.5947°
Eccentric anomaly
135.6115°
Mean motion
3.67651 °/min
Orbital period
97.92 mins
BSTAR
0.0045072
Loading maneuver chart data...
Computing Atmospheric mass density...

Documentation

Showing up to 5 results
|